Regional Weather Roundup
Issued by NWS Kansas City/Pleasant Hill, MO

Home | Current Version | Previous Version | Graphics & Text | Print | Product List | Glossary Off
Versions: 1 2 3 4 5 6 7 8 9 10 11 12 13 14 15 16 17 18 19 20 21 22 23 24 25 26 27

000
ASUS43 KEAX 282110
RWREAX

WEATHER ROUNDUP FOR EASTERN KANSAS AND NORTHWEST MISSOURI
NATIONAL WEATHER SERVICE KANSAS CITY/PLEASANT HILL MO
400 PM CDT THU JUL 28 2016

KSZ040-057-103>105-MOZ028-029-037-043-282200-
...KANSAS CITY METROPOLITAN AREA...

CITY           SKY/WX    TMP DP  RH WIND       PRES   REMARKS
K.C. INTL      MOSUNNY   89  68  49 N9        29.94F HX  93
K.C. DOWNTOWN  PTSUNNY   88  68  51 N9        29.92F HX  91
LEES SUMMIT    MOSUNNY   89  68  49 N12       29.93F HX  93
OLATHE - IXD   SUNNY     90  66  45 NW9       29.94F HX  92
OLATHE - OJC   MOSUNNY   91  65  41 N10       29.94F HX  93
LAWRENCE       MOSUNNY   91  70  49 N10       29.93F HX  96

$$

MOZ001>008-011>017-020>025-030>033-038>040-044>046-053-054-282200-
...NORTHERN AND CENTRAL MISSOURI...

CITY           SKY/WX    TMP DP  RH WIND       PRES   REMARKS
ST. JOSEPH     SUNNY     87  66  49 NW10      29.95F
MOSBY          CLEAR     88  64  45 N13       29.92F
WHITEMAN AFB   NOT AVBL
CLINTON        MOSUNNY   88  73  62 N12       29.91F HX  96
SEDALIA        SUNNY     89  71  55 N7        29.92F HX  95
WARSAW         NOT AVBL
CHILLICOTHE      N/A     89  65  44 N9        29.93F HX  91
KIRKSVILLE     MOSUNNY   88  66  48 NE12      29.94R HX  90

$$

MOZ041-047>049-056>058-063>065-088>090-097-282200-
...EASTERN AND SOUTHERN MISSOURI...

CITY           SKY/WX    TMP DP  RH WIND       PRES   REMARKS
ST. LOUIS INTL CLOUDY    90  71  53 NW12      29.86F HX  96
SPIRIT OF STL  CLOUDY    89  72  56 NW9       29.85F HX  96
COLUMBIA       MOSUNNY   88  71  57 NW7       29.90F HX  94
JEFFERSON CITY MOSUNNY   85  75  72 S7        29.88F HX  93
ROLLA          LGT RAIN  72  68  87 NW3       29.92F
OSAGE BEACH    TSTM      75  72  90 SE5       29.93R FOG
SPRINGFIELD    PTSUNNY   87  71  58 SW8       29.93F THUNDER HX  93
BRANSON        MOSUNNY   90  72  55 NW6       29.95F HX  96
JOPLIN         PTSUNNY   90  70  51 NW7       29.93F HX  95
WEST PLAINS    SUNNY     91  68  46 CALM      29.94F HX  95

$$

IAZ060-094-KSZ022-034>040-054-083-096-NEZ052-066-093-282200-
...KANSAS...SOUTHEAST NEBRASKA AND IOWA...

CITY           SKY/WX    TMP DP  RH WIND       PRES   REMARKS
TOPEKA         MOSUNNY   92  66  42 NE6       29.93F HX  94
MANHATTAN      SUNNY     91  65  41 VRB3      29.94F HX  93
EMPORIA        SUNNY     91  64  40 VRB6      29.95F HX  92
CHANUTE        PTSUNNY   91  71  51 N7        29.93F HX  97
WICHITA        CLOUDY    88  68  51 SE14      29.95S HX  91
OMAHA          MOSUNNY   85  65  51 N14       29.97F
LINCOLN        MOSUNNY   86  65  49 NE15G22   29.98F
FALLS CITY     SUNNY     86  66  51 E6        29.96F
LAMONI         SUNNY     82  65  56 N14       29.95F
DES MOINES     MOSUNNY   80  62  54 N14G22    29.97S

$$





USA.gov is the U.S. government's official web portal to all federal, state and local government web resources and services.